Flag for U.S.A. Weather past 2 weeks in Baltimore, Maryland, U.S.A.

Now
60 °F

Passing clouds.


Feels Like: 60 °F
Forecast: 45 / 61 °F
Wind: 8 mph from Northeast

Location: Baltimore-Washington International Airport


UV Index: 5 (Moderate)

Visibility: 10 mi


Pressure: 30.27 "Hg

Humidity: 30%

Dew point: 28 °F

Location of BaltimoreLocation

Historic Weather in Baltimore

°F

Baltimore temperature yesterday

Maximum temperature yesterday: 51 °F (at 5:54 PM)
Minimum temperature yesterday: 37 °F (at 12:54 AM)
Average temperature yesterday: 44 °F

Past Weeks' High & Low Weather Summary

 TemperatureHumidityPressure
High83 °F (Apr 13, 3:54 PM)100% (Apr 5, 6:54 AM)30.67 "Hg (Apr 5, 6:54 AM)
Low31 °F (Apr 16, 5:54 AM)20% (Apr 6, 3:54 PM)29.46 "Hg (Apr 8, 6:54 AM)
Average54 °F58%30.06 "Hg
* Reported Apr 4 7:54 PM — Apr 19 7:54 PM, Baltimore, Weather by CustomWeather, © 2014

Note: Actual official high and low records may vary slightly from our data, if they occured in-between our weather recording intervals... More about our weather records

Advertising

Historic Weather Conditions — Data for Previous 24 hours

 ConditionsComfort  
Time TempWeatherWind HumidityBarometerVisibility
7:54 PM
Apr 19
62 °FPartly sunny.7 mph25%30.25 "Hg10 mi
6:54 PM64 °FOvercast.10 mph22%30.24 "Hg10 mi
5:54 PM65 °FOvercast.9 mph29%30.22 "Hg10 mi
4:54 PM66 °FMore clouds than sun.13 mph29%30.22 "Hg10 mi
3:54 PM67 °FMore clouds than sun.8 mph26%30.22 "Hg10 mi
2:54 PM67 °FHigh level clouds.5 mph26%30.23 "Hg10 mi
1:54 PM65 °FOvercast.8 mph34%30.24 "Hg10 mi
12:54 PM64 °FPartly sunny.9 mph34%30.25 "Hg10 mi
11:54 AM62 °FPartly sunny.8 mph38%30.27 "Hg10 mi
10:54 AM58 °FPartly sunny.9 mph44%30.30 "Hg10 mi
9:54 AM53 °FPartly sunny.3 mph55%30.30 "Hg10 mi
8:54 AM48 °FPartly sunny.No wind66%30.29 "Hg10 mi
7:54 AM43 °FOvercast.No wind82%30.29 "Hg10 mi
6:54 AM41 °FMostly cloudy.No wind82%30.27 "Hg10 mi
5:54 AM40 °FMostly cloudy.No wind86%30.25 "Hg10 mi
4:54 AM41 °FHigh level clouds.No wind82%30.23 "Hg10 mi
3:54 AM41 °FHigh level clouds.No wind82%30.23 "Hg10 mi
2:54 AM43 °FHigh level clouds.No wind76%30.24 "Hg10 mi
1:54 AM42 °FHigh level clouds.No wind76%30.26 "Hg10 mi
12:54 AM42 °FHigh level clouds.No wind79%30.28 "Hg10 mi
11:54 PM
Apr 18
45 °FHigh level clouds.No wind68%30.27 "Hg10 mi
10:54 PM46 °FHigh level clouds.No wind63%30.29 "Hg10 mi
9:54 PM46 °FHigh level clouds.No wind63%30.30 "Hg10 mi
Weather by CustomWeather, © 2014

See weather overview